Starlink 30441

operational
NORAD ID: 57869 Int'l Des: 2023-144 Owner: SPXS Country: US Constellation: starlink
LEOCIRCULAR

Über Starlink 30441

Beschreibung wird geladen...

Live-Position

3D-Globus wird geladen...

Nächste Überflüge

Höhenverlauf

Altitude vs Time

uPlot chart will show altitude changes over time

Zweizeiliger Elementsatz

1 57869U 23144F 26035.24132412 -.00000295 00000-0 -67930-5 0 9992
2 57869 42.9997 109.6482 0000701 216.8340 143.2454 15.02531727132539
Epoch: 4. Feb. 2026 • Age: 11 hours

Aktueller Status

Höhe 564.0 km
Geschwindigkeit 7.58 km/s
Subsatellitenpunkt -22.76°S, 65.71°W
Startdatum 16. Sept. 2023
Alter 2.3 years
Typ internet

Technische Details

Klassifizierung Payload
Masse 730.00 kg
Trockenmasse 700.00 kg
Gesamtmasse 730.00 kg
Länge 0.30 m
Durchmesser 4.10 m
Spannweite 29.00 m
Form Box + pan
Hersteller SPXS
Bus-Typ Starlink V2M
Phasenstatus In Orbit
Besitzer/Staat SPXS/US

Große Konstellationen

Loading constellations...